Find OneWeb SL0136

NORAD ID: 47273 Int'l Des: 2020-100 Owner: ONEWEB Country: UK Constellation: oneweb operational
LEOCIRCULARPOLARONEWEB_TYPE

当前视图

正在加载3D地球...

About OneWeb SL0136

OneWeb SL0136 (NORAD 47273) is a oneweb constellation satellite launched Dec 18, 2020 by ONEWEB of UK. It operates in LEO, CIRCULAR, POLAR, ONEWEB_TYPE orbit with a mass of 148.00 kg.

关于 OneWeb SL0136

正在加载描述...

即将过境

Passes for default location (London). Set your location on the main map for personalized predictions.

高度历史

Loading altitude history...

两行轨道根数

1 47273U 20100R 26171.43925823 -.00000381 00000-0 -10932-2 0 9990
2 47273 87.8934 350.0220 0001844 95.2248 264.9091 13.12440701265156
Epoch: Jun 20, 2026 • Age: 9 hours

当前状态

高度 1237.5 km
速度 7.23 km/s
星下点 -58.35°S, 21.71°W
发射日期 Dec 18, 2020
运行时间 5.5 years
类型 internet

技术详情

分类 Payload
质量 148.00 kg
干质量 140.00 kg
总质量 148.00 kg
长度 1.30 m
直径 1.00 m
跨度 5.00 m
形状 Trapezoid+2 pan
制造商 ONEWUS
平台类型 ARROW
阶段状态 In Orbit
所有者/国家 ONEWEB/UK

Most Searched